Location: Arroyo Grande
(40.2671°N, 4.2512°W)
Time: 11:40:21
(UTC+00:00)

Cosmos 2278 Rocket - Visible Passes

Search period start: 26 September 2023 00:00
Search period end: 06 October 2023 00:00
Orbit: 839 x 847 km, 71.0° (Epoch: 26 September)

Date Brightness Start Highest point End Pass type
(mag) Time Alt. Az. Time Alt. Az. Time Alt. Az.
26 Sep 4.1 18:48:40 10° NNE 18:50:58 12° NE 18:53:15 10° ENE visible
26 Sep 2.3 20:30:22 10° NNW 20:35:28 67° NNE 20:35:28 67° NNE visible
26 Sep 4.9 22:16:30 10° WNW 22:17:19 12° WNW 22:17:19 12° WNW visible
27 Sep 4.1 18:34:11 10° NNE 18:36:14 12° NE 18:38:16 10° ENE visible
27 Sep 2.1 20:15:42 10° NNW 20:21:23 71° ENE 20:21:27 71° ENE visible
27 Sep 4.8 22:01:39 10° WNW 22:03:19 14° W 22:03:19 14° W visible
28 Sep 2.1 20:01:02 10° NNW 20:06:42 68° ENE 20:07:31 59° ESE visible
28 Sep 4.6 21:46:48 10° WNW 21:49:22 16° W 21:49:22 16° W visible
29 Sep 2.1 19:46:21 10° NNW 19:52:00 65° ENE 19:53:41 44° SE visible
29 Sep 4.5 21:31:58 10° WNW 21:35:27 17° W 21:35:33 17° W visible
30 Sep 2.2 19:31:41 10° NNW 19:37:19 62° ENE 19:39:57 31° SE visible
30 Sep 4.4 21:17:10 10° WNW 21:20:48 18° W 21:21:50 17° WSW visible
01 Oct 2.2 19:17:00 10° NNW 19:22:37 59° ENE 19:26:23 21° SE visible
01 Oct 4.4 21:02:21 10° WNW 21:06:09 19° W 21:08:17 15° SW visible
02 Oct 2.3 19:02:21 10° NNW 19:07:56 56° ENE 19:13:00 12° SE visible
02 Oct 4.5 20:47:33 10° NW 20:51:29 20° W 20:54:54 12° SW visible
03 Oct 2.3 18:47:41 10° NNW 18:53:14 54° ENE 18:58:45 10° SE visible
03 Oct 4.4 20:32:46 10° NW 20:36:50 21° W 20:40:53 10° SSW visible
04 Oct 2.4 18:33:01 10° NNW 18:38:33 51° ENE 18:44:02 10° SE visible
04 Oct 4.4 20:18:00 10° NW 20:22:11 22° W 20:26:21 10° SSW visible
05 Oct 2.5 18:18:21 10° NNW 18:23:51 49° ENE 18:29:18 10° SE visible
05 Oct 4.4 20:03:14 10° NW 20:07:32 23° W 20:11:49 10° SSW visible
